Retour au catalogue

STARLINK-6243

ActifCommunicationsVLEO
NORAD 57080·PAYLOAD·🇺🇸 United States

Lancé Jun 22, 2023 depuis Vandenberg Space Force Base

Loading…

Prochains Passages (prochaines 24 heures)

TLE

FraisSource: CelesTrak SupGP

Époque: Sep 14, 2026, 21:32 UTC

1 57080C 23088AJ  26257.89770833  .00001520  00000+0  55078-4 0  2571
2 57080  43.0013 107.8939 0001135 269.9948  89.5204 15.27568815    14

Suivez STARLINK-6243 en temps réel avec AllMySat

Download on the App Store